Location: Rokycany
(49.7330°N, 13.6000°E)
Time: 10:07:47
(UTC+02:00)

ISS - Pass Details

Date: 26 March 2019
Orbit: 408 x 410 km, 51.6° (Epoch: 25 April)

Event Time Altitude Azimuth Distance (km) Brightness Sun altitude
Rises 20:59:01 0° 273° (W) 2,335 0.9 -23.6°
Reaches altitude 10° 21:01:07 10° 277° (W) 1,474 -0.2 -23.9°
Enters shadow 21:03:18 36° 295° (WNW) 666 -2.3 -24.2°
